Weather in Zaozer'ye

Russia / Smolensk Oblast     55°39′18″N   31°34′31″E
temp.,
°C
wind,
m/s
gust,
m/s
humid.,
%
clouds,
%
prec.,
mm/h
press.,
hPa
HPBL,
m
15 april, thu
thu1500:00+6nne3894100 1.4 1019341
03:00+5nne31096100 1.4 1019397
06:00+6nne41094100 0.0 1018505
09:00+6nne41094100 0.1 1018542
12:00+7nne41093100 0.6 1017569
15:00+8ne51192100 1.5 1017527
18:00+8ne51392100 0.7 1017703
21:00+8ne51492100 2.4 1017628
16 april, fri
fri1600:00+8ne51392100 0.4 1017735
03:00+7ene51292100 0.8 1017626
06:00+7ene51393100 1.0 1017737
09:00+8ene51190100 1.1 1018533
12:00+7ene41093100 2.4 1019444
15:00+12ene5876100 2.5 1019898
18:00+11ene51282100 0.0 10191121
21:00+11ene51281100 0.4 1020904
17 april, sat
sat1700:00+10ene5128499 0.4 1021888
03:00+8ene5118698 0.5 1021599
06:00+7ene41186100 0.0 1022562
09:00+9ene4979100 0.0 1023621
12:00+10ene4876100 0.0 1024682
15:00+12ene4771100 0.0 10241043
18:00+12ene486796 0.0 10241012
21:00+9ene3107719 0.0 1025315
18 april, sun
sun1800:00+7ene4127253 0.0 1026403
03:00+5ene3117261 0.0 1026331
06:00+4ene311785 0.0 1027329
09:00+8e49605 0.0 1027529
12:00+13e57454 0.0 10271202
15:00+14e56425 0.0 10261579
18:00+13e46487 0.0 10261449
21:00+8e396994 0.0 1028204
19 april, mon
mon1900:00+6e297660 0.0 1028193
03:00+5e29815 0.0 1029176
06:00+4e3108156 0.0 1028217
09:00+9ese4959100 0.0 1028470
12:00+13ese5845100 0.0 10271488
15:00+14ese5740100 0.0 10251905
18:00+13ese4949100 0.0 10241665
21:00+9e51168100 0.0 1024557